CW4352 Weather Reports


time (UTC)temp
C
wind
direction
speed
KPH
gust
KPH
rain 1hr
cm
rain 24hr
cm
rain mn
cm
humidity
%
barometer
mb
20260503203704 17 19 1.6 3.2 0.00 0.00 0.00 53 1011.6
20260503203205 16 19 1.6 4.8 0.00 0.00 0.00 53 1011.6
20260503201705 16 19 1.6 4.8 0.00 0.00 0.00 53 1011.6
20260503194704 17 19 0.0 0.0 0.00 0.00 0.00 50 1011.4
20260503194205 17 19 0.0 0.0 0.00 0.00 0.00 50 1011.4
20260503191705 17 19 0.0 3.2 0.00 0.00 0.00 48 1011.1
20260503191204 17 19 0.0 3.2 0.00 0.00 0.00 47 1011.1
20260503190705 17 19 0.0 0.0 0.00 0.00 0.00 47 1011.1
20260503184704 18 19 0.0 0.0 0.00 0.00 0.00 47 1010.9
20260503184205 18 19 0.0 0.0 0.00 0.00 0.00 48 1010.9
20260503183204 19 19 0.0 0.0 0.00 0.00 0.00 47 1010.9
20260503180705 20 19 0.0 0.0 0.00 0.00 0.00 43 1010.6
20260503180204 20 19 0.0 1.6 0.00 0.00 0.00 43 1010.6
20260503174205 22 19 0.0 0.0 0.00 0.00 0.00 46 1010.6
20260503173204 22 19 0.0 1.6 0.00 0.00 0.00 40 1011.0
20260503171704 23 19 1.6 3.2 0.00 0.00 0.00 37 1011.0
20260503171204 23 19 0.0 0.0 0.00 0.00 0.00 41 1011.0
20260503150205 24 355 3.2 4.8 0.00 0.00 0.00 32 1011.5
20260503140204 24 327 3.2 9.7 0.00 0.00 0.00 34 1012.2
20260503130204 23 17 4.8 8.0 0.00 0.00 0.00 35 1012.3
20260503110704 22 26 3.2 8.0 0.00 0.00 0.00 38 1013.0
20260503090204 22 9 3.2 8.0 0.00 0.00 0.00 45 1013.6
20260503081203 22 296 1.6 4.8 0.00 0.00 0.00 41 1013.6
20260503080704 22 296 1.6 4.8 0.00 0.00 0.00 36 1013.6
20260503080204 22 296 1.6 4.8 0.00 0.00 0.00 40 1013.6
20260503071704 18 296 1.6 3.2 0.00 0.00 0.00 46 1013.7
20260503070704 18 296 0.0 3.2 0.00 0.00 0.00 47 1013.8
20260503070204 18 296 0.0 4.8 0.00 0.00 0.00 47 1013.8
20260503054704 13 296 3.2 9.7 0.00 0.00 0.00 55 1014.1
20260503053204 12 296 1.6 4.8 0.00 0.00 0.00 56 1014.0
20260503051704 12 296 3.2 9.7 0.00 0.00 0.00 54 1014.0
20260503050704 12 296 1.6 4.8 0.00 0.00 0.00 57 1014.0
20260503044204 11 296 1.6 4.8 0.00 0.00 0.00 53 1013.9
20260503043204 11 296 1.6 4.8 0.00 0.00 0.00 52 1013.9
20260503041704 11 296 1.6 9.7 0.00 0.00 0.00 53 1013.8
20260503041204 11 296 3.2 11.3 0.00 0.00 0.00 52 1013.8
20260503040704 11 296 1.6 4.8 0.00 0.00 0.00 52 1013.8
20260503040204 11 296 1.6 11.3 0.00 0.00 0.00 52 1013.8
20260503034704 12 296 1.6 4.8 0.00 0.00 0.00 51 1013.8
20260503034204 12 296 4.8 12.9 0.00 0.00 0.00 50 1013.8
20260503033204 12 296 3.2 19.3 0.00 0.00 0.00 50 1013.8
20260503031203 12 296 4.8 9.7 0.00 0.00 0.00 50 1014.0
20260503030204 12 303 1.6 9.7 0.00 0.00 0.00 50 1014.0
20260503024204 11 18 0.0 4.8 0.00 0.00 0.00 53 1014.2
20260503023704 11 18 1.6 4.8 0.00 0.00 0.00 53 1014.2
20260503021704 11 19 3.2 9.7 0.00 0.00 0.00 53 1014.2
20260503021204 11 19 3.2 9.7 0.00 0.00 0.00 54 1014.2
20260503014704 11 23 3.2 9.7 0.00 0.00 0.00 54 1014.3
20260503013203 11 24 3.2 11.3 0.00 0.00 0.00 56 1014.3
20260503011704 11 28 3.2 4.8 0.00 0.00 0.00 56 1014.3
20260503010703 12 28 0.0 3.2 0.00 0.00 0.00 56 1014.4
20260503004204 12 28 1.6 8.0 0.00 0.00 0.00 57 1014.8
20260503003704 12 28 1.6 9.7 0.00 0.00 0.00 57 1014.8
20260503001704 12 28 1.6 4.8 0.00 0.00 0.00 58 1015.1
20260503001203 12 28 1.6 4.8 0.00 0.00 0.00 58 1015.1
20260502234704 12 28 1.6 3.2 0.00 0.00 0.00 59 1015.1
20260502234203 11 28 0.0 3.2 0.00 0.00 0.00 60 1015.1
20260502231704 12 28 0.0 3.2 0.00 0.00 0.00 59 1015.3
20260502231204 12 28 0.0 1.6 0.00 0.00 0.00 58 1015.3
20260502230706 12 28 0.0 1.6 0.00 0.00 0.00 58 1015.3
20260502224204 12 28 0.0 1.6 0.00 0.00 0.00 58 1015.3
20260502223704 12 28 0.0 3.2 0.00 0.00 0.00 58 1015.3
20260502221203 12 28 0.0 3.2 0.00 0.00 0.00 57 1015.3
20260502214204 13 34 0.0 1.6 0.00 0.00 0.00 56 1015.3
20260502213204 13 34 1.6 4.8 0.00 0.00 0.00 56 1015.5
20260502211703 13 34 3.2 4.8 0.00 0.00 0.00 56 1015.5
20260502211203 13 34 3.2 4.8 0.00 0.00 0.00 57 1015.5
20260502210704 13 34 3.2 4.8 0.00 0.00 0.00 56 1015.5
20260502204704 13 34 0.0 1.6 0.00 0.00 0.00 54 1015.5
20260502204204 14 34 0.0 3.2 0.00 0.00 0.00 54 1015.5